Starlink 1234

operational
NORAD ID: 45190 Int'l Des: 2020-012 Owner: SPXS Country: US Constellation: starlink
LEOCIRCULARSTARLINK_TYPE

Über Starlink 1234

Beschreibung wird geladen...

Live-Position

3D-Globus wird geladen...

Nächste Überflüge

Höhenverlauf

Altitude vs Time

uPlot chart will show altitude changes over time

Zweizeiliger Elementsatz

1 45190U 20012N 25353.28289090 .00089454 00000-0 18956-2 0 9991
2 45190 53.0513 353.0174 0009370 21.2242 338.9151 15.44316234323385
Epoch: 19. Dez. 2025 • Age: 5 hours

Aktueller Status

Höhe 438.3 km
Geschwindigkeit 7.65 km/s
Subsatellitenpunkt 35.54°N, 129.02°W
Startdatum 17. Feb. 2020
Alter 5.8 years
Typ internet

Technische Details

Klassifizierung Payload
Masse 260.00 kg
Trockenmasse 248.00 kg
Gesamtmasse 260.00 kg
Länge 0.20 m
Durchmesser 2.80 m
Spannweite 9.00 m
Form Box + pan
Hersteller SPXS
Bus-Typ Starlink
Phasenstatus In Orbit
Besitzer/Staat SPXS/US

Große Konstellationen

Loading constellations...